Regional Weather Roundup
Issued by NWS

Home | Current Version | Previous Version | Text Only | Print | Product List | Glossary On
Versions: 1 2 3 4 5 6 7 8 9 10 11 12 13 14 15 16 17 18 19 20 21 22 23 24 25 26 27 28 29 30 31 32 33 34 35 36 37 38 39 40 41 42 43 44 45 46 47 48 49 50
000
ASUS43 KMKX 231900
RWRWI

WISCONSIN REGIONAL WEATHER ROUNDUP
NATIONAL WEATHER SERVICE MILWAUKEE/SULLIVAN WI
200 PM CDT SAT SEP 23 2017

NOTE: "FAIR" INDICATES FEW OR NO CLOUDS BELOW 12,000 FEET WITH NO
SIGNIFICANT WEATHER AND/OR OBSTRUCTIONS TO VISIBILITY.

WIZ001-002-006>008-014>016-023>028-232000-
NORTHWEST WISCONSIN

CITY           SKY/WX    TMP DP  RH WIND       PRES   REMARKS
SUPERIOR ARPT  PTSUNNY   84  72  68 SW7       29.93R HX  89
ASHLAND        SUNNY     88  71  57 S8        29.94F HX  94
HAYWARD        SUNNY     84  70  62 S13       29.97F HX  88
SIREN          CLOUDY    85  69  58 S9        29.96S HX  88
CUMBERLAND     CLOUDY    82  68  61 S10G16    29.98F HX  85
RICE LAKE      CLOUDY    86  68  55 S12       30.00S HX  89
CHETEK         CLOUDY    85  72  64 S9        29.99F HX  90
LADYSMITH      SUNNY     85  70  60 S10       30.02F HX  89
EAU CLAIRE     NOT AVBL
MENOMONIE      MOSUNNY   86  70  58 S10       29.98F HX  91
NEW RICHMOND   MOSUNNY   85  67  54 S14       29.97S HX  88
OSCEOLA        PTSUNNY   87  69  56 SW8       29.98S HX  91
$$

WIZ003>005-009-010-017-018-232000-
NORTH CENTRAL WISCONSIN

CITY           SKY/WX    TMP DP  RH WIND       PRES   REMARKS
MANITOWISH WTR NOT AVBL
ARBOR VITAE    MOSUNNY   85  70  60 S14G22    30.03F HX  90
WOODRUFF       MOSUNNY   85  70  60 S14G22    30.03F HX  90
RHINELANDER    MOSUNNY   85  68  56 SW12      30.05F HX  88
EAGLE RIVER    MOSUNNY   84  65  53 SW9G16    30.04S HX  85
LAND O LAKES   SUNNY     86  67  53 S9        30.05F HX  89
PHILLIPS       PTSUNNY   84  71  65 S9G17     30.02F HX  89
TOMAHAWK       MOSUNNY   84  68  57 SW3       30.05F HX  87
MEDFORD        PTSUNNY   82  67  59 S12       30.05S HX  84
MERRILL        MOSUNNY   87  68  52 SW15G21   30.05F HX  90
$$

WIZ029-030-035-036-043>047-232000-
CENTRAL WISCONSIN

CITY           SKY/WX    TMP DP  RH WIND       PRES   REMARKS
WAUSAU         LGT RAIN  85  65  51 SW14G22   30.03F HX  86
MOSINEE        MOSUNNY   86  66  51 SW14      30.06F HX  88
MARSHFIELD     MOSUNNY   87  65  47 SW12      30.04F HX  89
STEVENS POINT  SUNNY     86  65  50 SW13G20   30.06S HX  87
WAUPACA        MOSUNNY   91  67  45 SW7       30.05F HX  94
WAUTOMA        MOSUNNY   89  68  49 W8        30.05F HX  93
WISC RAPIDS    MOSUNNY   89  68  49 SW9       30.05F HX  93
CAMP DOUGLAS   NOT AVBL
$$

WIZ011>013-019>022-031-037>040-048>050-232000-
NORTHEAST WISCONSIN

CITY           SKY/WX    TMP DP  RH WIND       PRES   REMARKS
ANTIGO         SUNNY     85  65  51 SW13G18   30.07F HX  87
SHAWANO        SUNNY     91  65  43 SW13G22   30.04F HX  92
OCONTO         SUNNY     89  67  47 W10G20    30.04S HX  92
STURGEON BAY   SUNNY     88  69  53 S9        30.05F HX  92
GREEN BAY      SUNNY     89  69  51 SW12      30.05F HX  93
MANITOWOC      SUNNY     84  69  60 S10       30.07F HX  88
APPLETON       MOSUNNY   88  64  45 SE7       30.06F HX  89
CLINTONVILLE   MOSUNNY   90  64  43 SW16      30.05S HX  91
OSHKOSH        SUNNY     89  65  44 SW10      30.05F HX  91
$$

WIZ032>034-041-042-053>061-232000-
SOUTHWEST WISCONSIN

CITY           SKY/WX    TMP DP  RH WIND       PRES   REMARKS
LA CROSSE      MOSUNNY   91  67  44 S13       29.99F HX  94
SPARTA         MOSUNNY   89  66  45 S16       30.03F HX  91
VIROQUA        SUNNY     88  66  47 SW14G22   30.06F HX  90
BOSCOBEL       MOSUNNY   93  63  36 VRB7      30.02F HX  94
PRAIRIE DU CHI SUNNY     91  62  37 S5        30.02F HX  91
PLATTEVILLE    SUNNY     91  64  40 SW9       30.07F HX  92
$$

WIZ056-057-062-063-064-067-068-232000-
SOUTH CENTRAL WISCONSIN

CITY           SKY/WX    TMP DP  RH WIND       PRES   REMARKS
REEDSBURG      MOSUNNY   90  66  45 S10G16    30.05F HX  93
BARABOO/DELLS  NOT AVBL
LONE ROCK      NOT AVBL
MINERAL POINT  MOSUNNY   93  61  33 S9        30.07F HX  93
MADISON        MOSUNNY   91  63  39 S9        30.05F HX  92
MIDDLETON      SUNNY     93  59  31 S9G20     30.07F HX  92
WATERTOWN      SUNNY     91  65  42 SW6       30.07F HX  92
MONROE         SUNNY     91  55  29 S9        30.07F HX  89
JANESVILLE     PTSUNNY   93  59  31 S9        30.06F HX  92
$$

WIZ051-052-058>065-066-070>072-232000-
SOUTHEAST WISCONSIN

CITY           SKY/WX    TMP DP  RH WIND       PRES   REMARKS
MILWAUKEE      MOSUNNY   88  68  51 SE10      30.07F HX  91
WAUKESHA       MOSUNNY   88  61  40 CALM      30.09F HX  88
MILWAUKEE/TIMM PTSUNNY   90  61  37 SE9       30.08F HX  89
RACINE         SUNNY     87  68  52 SE12      30.09F HX  90
BURLINGTON     SUNNY     93  64  37 S3        30.08F HX  95
KENOSHA        MOSUNNY   93  67  42 E15       30.07F HX  96
FOND DU LAC    SUNNY     89  63  41 SW9       30.06F HX  90
SHEBOYGAN      SUNNY     89  72  56 S8        30.07F HX  96
WEST BEND        N/A     90  59  35 S7        30.08F HX  89
JUNEAU         SUNNY     87  65  46 S5        30.09F HX  89
$$

LSZ147-162-232000-
LAKE SUPERIOR

STATION/POSITION TIME  TEMP    WIND        PRES    WAVE
                       AIR SEA DIR/SP/G            HT/PER
                 (UTC) (F)     (DEG/KT/KT) (MB)    (FT/S)
W MID LAKE BUOY  1750   62 55  220/ 10/ 10 1013.3S   1/ 4
DEVILS ISLAND    1800   76     200/  3/  5 1013.1F
SAXON HARBOR     1840   87     190/  8/ 11 1012.9F
$$

LMZ867-665-643>646-232000-
LAKE MICHIGAN

STATION/POSITION TIME  TEMP    WIND        PRES    WAVE
                       AIR SEA DIR/SP/G            HT/PER
                 (UTC) (F)     (DEG/KT/KT) (MB)    (FT/S)
S GREEN BAY BUOY 1830   74 69  190/  6/  8 1017.1F
N MID LAKE BUOY  1750   69 66  190/ 12/ 14 1018.5F   2/ 4
NORTHPORT PIER   1840   77     140/  7/ 10 1017.3F
KEWAUNEE LAKESHO 1830   67     180/ 11/ 12 1017.4F
SHEBOYGAN LAKESH 1800   72     170/ 15/ 16 1018.3F
PORT WASHINGTON  1840   77     170/  3/  4 1019.6F
ATWATER BUOY     1739   71 69  150/  8/  8 1019.2F
MILWAUKEE LAKESH 1830   76     340/  1/  2   N/A
S MID LAKE BUOY  1750   73 72  140/  6/  6 1019.6F   0
KENOSHA   LAKESH 1800   75     160/  8/  9 1018.6
$$

TC  - TEMPERATURE IN CELSIUS
VSB - VISIBILITY IN STATUTE MILES
WCI - WIND CHILL INDEX
HX  - HEAT INDEX





USA.gov is the U.S. government's official web portal to all federal, state and local government web resources and services.